Theta_e
312 314 312 310 310 310 309 308 310 312 313 314 316 316 315 312 313 315 313 315 335 356 348 343 345 343 345 342 334 332 335 340 344 345 345 344 342 342 342 341 341 340 339 337 337 336 336 336 336 336 336 336 337 338 338 338 339 339 339 339 339 339 340 340 341 341 340 340 339 339 339 339 339 339 339 338 338 338 337 337 336 337 337 336 336 335
312 314 312 311 311 311 310 311 312 312 312 312 313 314 312 312 312 314 312 314 333 355 346 341 346 345 341 337 333 332 333 334 338 341 344 344 342 341 340 339 339 338 336 335 335 334 334 334 333 333 334 335 335 335 336 336 337 337 337 337 337 338 339 339 339 339 339 339 339 340 339 339 339 339 339 339 338 338 337 337 336 336 336 336 336 336
313 313 312 312 313 311 311 314 314 312 312 312 312 313 313 313 314 313 316 324 336 348 345 341 345 344 339 336 334 334 332 332 334 339 343 342 341 340 338 338 337 337 335 334 333 332 331 331 330 331 331 331 332 332 333 334 335 336 336 336 337 337 338 338 338 338 338 338 338 339 339 339 339 339 339 339 338 337 337 337 337 337 336 336 336 336
314 313 313 313 312 311 311 312 313 313 313 314 314 313 313 313 314 313 323 337 341 343 343 342 344 344 339 336 335 334 333 333 335 338 340 339 339 337 336 335 335 336 335 333 332 330 330 329 328 329 328 329 330 330 331 332 333 334 334 335 335 336 337 337 337 337 338 338 338 338 338 338 339 338 338 337 337 336 337 337 337 337 336 336 336 335
313 313 313 313 311 311 312 311 312 313 313 314 315 313 313 314 314 319 332 341 342 340 341 342 345 346 340 338 339 336 334 335 335 336 338 337 336 334 333 333 333 333 333 332 330 329 328 328 327 327 326 326 327 327 328 329 331 331 332 333 334 335 335 336 336 336 337 338 338 338 338 337 336 336 335 335 334 335 335 335 335 335 335 334 334 334
313 313 312 312 311 311 312 311 311 312 312 314 314 312 313 313 319 332 339 342 344 344 342 341 346 348 341 339 341 337 335 335 335 335 336 336 334 333 333 333 331 330 330 329 328 327 327 326 325 325 325 325 325 324 325 326 327 329 330 331 332 333 334 334 335 335 336 336 336 337 336 335 333 333 332 331 331 332 333 333 333 334 333 333 333 333
313 312 311 312 312 311 311 311 310 311 312 312 313 311 312 313 318 330 338 342 344 343 341 336 340 347 343 338 339 337 335 335 335 335 335 334 333 332 332 331 330 329 328 327 326 326 326 325 324 324 323 324 323 323 323 323 325 326 327 328 329 330 331 332 332 333 334 334 334 334 333 331 331 330 329 328 328 329 330 331 332 332 332 332 332 332
312 313 311 312 312 311 311 311 310 311 312 312 312 310 312 314 313 321 334 343 340 338 339 335 335 346 347 342 338 336 336 337 336 336 336 334 333 331 331 330 328 327 326 326 325 325 324 324 323 323 323 323 323 323 322 322 323 324 325 326 327 328 328 329 330 330 331 330 330 330 330 329 328 327 326 326 327 327 328 329 329 329 329 329 329 330
312 313 312 311 312 311 310 311 311 310 312 312 312 312 312 313 311 315 326 332 332 336 342 339 335 343 346 343 338 336 337 338 336 336 336 334 333 331 330 328 326 326 325 324 324 324 324 323 323 322 322 322 322 322 322 322 323 323 323 323 324 325 325 326 326 327 327 327 327 327 327 327 326 325 324 324 325 326 326 326 326 326 327 327 327 327
311 312 313 311 311 312 310 312 311 309 312 312 312 315 313 312 312 313 318 322 328 338 342 338 336 342 345 342 339 338 338 338 337 337 335 333 332 330 329 327 325 324 324 323 323 323 322 322 321 321 320 320 320 321 321 322 322 322 321 321 321 322 322 322 323 323 324 324 324 324 324 324 324 323 323 323 324 324 324 324 323 323 324 324 325 325
312 312 314 311 311 312 312 313 311 309 311 311 312 313 311 315 316 316 323 327 332 336 335 334 336 338 341 341 339 339 338 338 337 338 336 333 331 329 327 325 324 323 322 321 321 321 321 320 320 320 320 319 319 319 320 320 321 321 320 319 319 320 320 321 321 321 321 321 321 321 321 321 321 321 321 322 321 321 320 320 320 321 321 321 322 323
311 312 313 312 313 313 313 313 310 309 310 309 313 312 310 318 318 315 320 324 329 333 330 332 334 331 335 341 339 338 338 336 336 337 335 333 331 328 326 325 323 321 321 320 320 320 320 320 319 320 319 319 318 318 318 319 320 321 320 318 319 319 320 320 320 319 318 318 318 318 318 318 318 318 319 319 319 318 317 317 317 318 318 318 319 320
310 312 311 312 315 312 312 313 310 309 309 308 313 313 312 316 314 313 318 321 326 329 326 329 332 328 334 338 336 337 338 334 333 333 332 331 329 327 325 324 322 320 320 320 319 319 319 319 319 319 319 319 318 318 317 318 320 320 319 318 318 318 319 319 319 318 318 318 317 316 316 316 316 317 317 317 317 315 314 314 314 314 314 314 315 316
309 311 311 311 314 312 312 313 311 311 309 308 311 312 314 316 315 316 319 320 321 323 323 327 330 332 338 338 333 335 335 333 332 331 329 328 327 325 324 322 321 320 319 319 319 319 318 318 318 318 319 318 317 318 317 317 319 319 317 317 317 316 317 317 317 317 317 317 317 316 314 314 314 315 315 314 314 313 312 312 311 311 312 312 312 313
310 313 313 311 312 312 311 311 312 313 311 308 310 313 315 319 320 318 319 319 317 321 326 328 330 336 341 337 331 332 332 331 330 329 327 326 324 323 322 321 320 319 319 319 318 318 318 317 317 318 318 317 317 317 316 317 318 318 316 316 316 315 315 315 315 315 315 315 315 314 313 313 313 313 312 312 312 311 311 310 310 309 309 310 310 310
310 312 315 313 311 312 311 311 311 312 311 309 311 313 312 318 325 322 321 326 327 328 331 331 332 335 335 331 328 330 331 329 328 327 326 325 322 321 320 319 319 319 318 318 318 318 317 317 317 317 316 316 315 315 316 317 317 316 316 315 315 314 314 314 313 313 313 313 313 312 312 312 311 311 311 310 310 309 309 308 308 307 307 307 307 308
312 316 318 313 311 312 310 311 310 310 314 312 310 312 310 315 326 322 317 323 328 330 330 331 334 334 333 332 329 329 330 328 326 325 324 323 321 320 319 319 318 318 318 317 318 317 316 316 316 316 315 315 314 314 315 316 316 315 314 314 314 313 313 312 312 312 312 311 311 311 311 310 310 309 309 308 308 307 307 306 306 305 305 305 305 305
317 321 321 313 311 313 311 311 310 310 315 312 308 312 312 312 319 323 322 323 326 332 331 330 334 336 335 335 332 330 331 328 325 324 322 321 320 319 318 318 317 317 317 317 317 316 316 316 315 315 314 314 313 314 314 315 315 314 313 313 312 312 311 311 311 311 310 310 310 309 309 308 308 308 307 307 306 306 305 305 304 304 304 303 303 303
316 318 322 316 312 313 311 309 311 310 311 312 311 312 315 315 316 319 322 321 323 332 333 332 334 335 335 334 333 332 332 329 326 323 322 320 320 319 318 317 317 316 317 317 317 316 316 315 314 314 313 313 313 313 313 313 313 313 312 311 311 310 310 310 309 309 309 308 308 308 307 307 307 307 306 306 305 305 304 304 304 303 303 302 302 302
315 316 323 319 312 313 312 310 311 312 310 311 312 311 313 319 318 316 318 322 328 333 333 335 336 335 335 332 331 333 330 328 326 323 322 320 319 318 318 317 317 317 317 317 317 316 315 314 314 313 313 312 312 312 312 312 312 312 311 310 310 310 309 309 308 308 307 307 307 306 306 306 306 306 306 306 305 304 303 303 303 303 302 302 301 301
311 312 323 325 315 311 313 312 311 313 311 310 312 311 312 314 315 316 316 320 331 335 333 335 335 336 336 330 329 331 328 325 324 322 321 319 318 318 317 317 317 316 316 316 316 316 314 313 312 311 311 311 311 311 311 311 310 310 310 309 309 309 308 308 308 308 307 307 306 306 306 305 305 305 305 305 304 304 303 303 303 303 302 301 301 300
312 316 326 328 317 311 315 316 313 313 312 312 314 313 315 315 315 317 316 316 327 335 334 335 337 337 334 330 329 329 326 323 321 321 320 318 318 317 316 316 316 316 316 315 315 314 313 312 311 310 310 310 310 310 310 310 309 309 309 309 308 308 307 307 307 307 307 306 306 305 305 305 304 305 305 305 304 304 303 303 302 302 302 301 300 300
322 320 319 322 319 315 316 314 312 314 312 313 314 312 317 321 316 318 321 320 325 331 330 332 339 337 328 328 330 327 324 323 320 319 318 317 317 317 316 316 316 316 316 314 313 312 312 311 310 310 309 309 309 309 309 309 309 308 308 308 307 307 307 306 306 306 306 305 304 303 303 303 304 304 304 304 304 303 303 302 302 302 302 301 300 300
322 315 313 322 323 316 316 315 311 312 312 313 315 312 315 321 321 328 335 331 329 334 331 330 336 336 328 327 328 325 322 321 319 318 317 317 317 316 316 316 315 315 314 313 312 311 310 310 309 309 309 308 309 308 308 308 308 307 307 307 307 306 306 306 306 305 305 304 303 303 302 302 302 302 301 301 302 302 302 302 302 302 302 300 300 299
315 316 315 318 319 314 315 315 311 311 314 319 323 317 315 322 324 325 328 326 327 333 332 329 333 334 329 326 325 323 321 320 318 317 316 316 316 316 315 314 313 313 312 311 311 310 310 309 308 308 308 308 308 308 308 308 307 307 307 306 306 306 306 306 305 305 305 304 304 303 303 302 302 301 301 300 300 301 301 302 302 301 301 300 299 299
315 324 317 314 322 322 319 321 321 319 317 318 321 317 315 319 319 319 320 318 320 325 326 329 335 331 327 326 324 322 321 320 318 317 316 316 316 315 314 313 312 312 311 310 310 310 309 308 308 308 308 308 308 308 307 307 307 306 306 306 306 305 305 305 305 305 305 304 304 304 303 303 302 302 301 300 300 300 300 300 300 300 300 299 298 298
321 327 320 319 325 324 325 332 331 323 316 316 316 315 316 318 319 325 326 321 322 325 325 328 330 330 329 327 325 322 321 320 318 317 316 316 316 314 313 312 311 311 311 310 310 309 309 308 307 307 307 307 307 307 307 307 306 306 306 305 305 305 305 305 304 304 303 303 303 303 303 303 303 302 301 300 300 300 300 299 299 298 298 297 297 297
321 320 321 326 325 320 325 331 327 320 316 318 317 315 318 321 323 323 322 323 327 327 326 326 327 330 330 327 325 323 320 319 318 317 316 315 315 313 312 311 311 310 310 309 309 309 308 307 307 307 307 307 307 307 306 306 306 306 305 305 305 304 304 304 304 303 302 301 301 302 302 302 303 302 301 300 299 300 299 299 298 298 297 297 296 296
321 317 322 329 328 326 328 327 327 328 328 328 330 328 325 322 320 320 324 328 327 323 326 328 327 329 329 326 324 322 319 318 317 316 315 314 313 312 311 311 310 309 309 309 308 308 308 307 307 307 307 307 307 306 306 306 306 306 305 304 304 304 304 304 303 302 301 300 300 300 301 302 303 302 301 299 299 299 299 298 298 297 297 297 296 296
321 321 325 331 332 331 329 326 327 334 338 335 334 336 334 326 322 330 336 331 330 329 329 326 326 327 326 324 322 320 318 317 316 315 314 314 313 311 311 310 310 309 309 308 308 308 307 307 307 306 306 306 307 307 306 306 306 305 304 304 303 303 303 303 303 301 301 300 300 299 300 301 302 301 300 299 298 298 298 297 297 297 296 296 296 296
315 319 327 334 333 329 328 327 326 332 338 334 329 330 333 331 329 333 334 331 334 334 325 323 327 327 323 321 319 318 316 316 315 314 314 313 312 311 311 310 310 309 308 308 308 308 307 306 306 306 306 306 307 307 306 306 305 304 304 303 302 302 302 303 303 302 301 300 300 299 299 299 300 299 298 298 298 298 298 297 297 296 296 296 296 296
317 322 326 332 333 328 326 326 325 327 331 332 331 329 330 332 331 329 328 330 335 332 324 325 328 325 321 319 317 316 316 315 315 314 314 313 312 311 310 310 310 309 308 308 307 307 307 306 305 305 305 306 307 307 306 306 305 304 303 303 302 302 302 303 302 301 301 300 300 300 299 299 299 298 298 298 298 298 298 297 297 297 296 296 296 296
324 326 326 328 331 329 327 327 326 325 325 326 326 324 323 326 326 326 326 326 326 326 325 327 327 323 319 318 317 316 316 315 315 314 313 313 311 311 310 309 309 308 308 307 307 307 306 306 305 305 305 305 306 306 305 305 304 303 303 302 302 302 302 302 301 300 300 299 299 300 299 299 299 299 299 298 298 298 298 298 298 298 297 297 296 295
324 325 329 331 331 328 327 326 323 323 326 325 319 317 319 323 324 326 326 324 322 323 324 325 323 320 318 317 317 317 316 315 314 313 313 312 311 311 310 309 309 308 307 307 307 306 305 305 305 305 304 305 305 305 305 304 303 303 302 302 301 301 301 301 300 300 300 299 299 299 299 299 299 299 299 299 299 299 298 298 298 298 298 297 296 295
324 327 330 329 330 330 329 326 322 325 329 324 317 315 316 319 321 320 320 319 319 321 322 323 321 318 318 318 316 316 315 314 314 313 313 312 311 310 309 308 308 307 307 307 306 305 304 304 305 305 304 304 304 304 304 303 302 302 302 301 301 300 300 300 300 300 300 299 299 299 298 299 299 299 299 299 299 299 299 299 298 298 299 298 296 295
326 331 330 326 324 327 330 328 323 325 323 318 315 315 315 317 319 320 322 320 317 318 320 320 319 318 317 316 315 315 314 313 313 313 312 311 310 308 308 307 307 307 307 306 305 304 304 305 305 305 304 304 304 304 304 303 302 302 301 301 301 300 300 300 300 300 300 299 299 298 298 298 298 298 299 299 299 299 298 298 298 298 298 298 296 295
324 330 331 326 321 323 328 327 323 324 324 322 319 317 319 320 321 327 331 323 315 317 319 318 317 317 316 315 314 313 312 312 313 312 310 310 309 307 307 306 306 305 305 305 305 305 305 305 305 304 304 303 303 303 303 303 302 302 301 301 301 301 300 300 300 300 300 300 299 298 298 297 297 297 297 298 298 298 297 297 297 297 297 297 296 295
322 326 328 326 321 320 326 328 327 329 334 331 325 321 321 322 323 328 333 325 316 316 318 317 317 316 314 314 313 312 312 314 314 311 308 308 307 306 306 305 304 304 304 304 305 305 305 305 305 304 303 302 302 303 303 303 302 302 301 301 301 301 301 300 300 300 300 300 300 298 297 297 297 297 297 297 297 297 297 296 296 297 296 296 295 294
320 323 327 327 323 322 329 335 333 332 333 331 327 322 320 321 322 325 331 329 319 315 316 317 316 315 314 313 312 312 314 316 314 311 307 306 306 306 305 305 304 304 304 304 305 304 304 304 304 303 302 302 302 302 302 302 302 302 301 301 301 301 301 301 300 300 300 300 300 299 297 297 297 297 297 297 297 296 296 296 296 296 296 295 294 294
328 329 330 329 326 324 330 335 331 327 326 323 322 323 321 319 318 323 332 331 319 314 316 316 315 314 313 312 312 313 316 317 314 309 307 306 306 305 305 304 303 303 303 303 303 303 302 302 302 302 301 301 301 301 301 302 302 302 302 301 301 301 301 301 300 300 300 300 300 299 298 297 297 297 297 297 297 296 296 296 296 296 295 294 294 294
329 329 327 328 328 327 331 333 327 325 326 322 321 324 321 317 318 326 335 330 317 314 316 315 314 314 312 311 313 314 314 314 310 307 306 306 305 305 305 304 303 303 302 302 301 301 301 302 302 302 301 301 301 301 301 301 301 301 301 301 301 301 301 301 301 300 300 301 300 299 298 297 297 297 297 297 297 297 297 296 296 296 295 295 295 294
326 325 323 324 324 324 329 332 326 324 325 322 320 319 316 319 328 332 326 319 314 314 316 314 313 313 311 312 314 312 310 309 307 306 306 306 305 305 304 303 302 302 302 301 301 301 301 301 301 301 301 301 301 301 301 300 300 300 300 301 301 301 301 301 301 300 300 300 300 299 298 298 298 297 297 297 297 297 297 297 297 296 296 295 295 294
328 328 327 323 321 322 326 328 326 324 321 318 318 317 317 325 332 324 314 313 314 314 314 313 312 311 311 311 311 308 307 307 306 306 306 305 305 304 303 302 301 301 301 301 301 301 301 301 301 301 301 300 300 300 300 300 299 299 299 299 299 299 300 300 300 301 301 300 300 300 299 298 298 298 298 298 298 298 297 297 297 296 296 295 295 295
326 329 329 324 322 325 330 329 327 324 320 317 319 321 322 323 321 315 312 314 314 313 313 312 311 310 310 309 307 307 306 306 306 306 305 305 305 303 302 301 301 300 300 300 300 301 301 301 300 301 301 300 300 300 300 300 299 299 298 298 298 298 299 299 299 300 301 300 300 300 299 299 299 299 298 298 298 298 298 297 297 297 296 296 295 295
321 321 323 324 321 322 326 327 322 318 315 314 315 317 317 314 312 312 313 313 313 313 312 311 310 309 308 307 306 306 306 306 305 305 305 305 304 303 301 301 300 300 300 300 300 301 301 300 301 301 301 300 300 300 300 300 299 299 298 298 298 298 299 299 299 300 300 300 300 300 300 299 299 299 299 299 298 298 298 297 297 297 297 296 295 295
317 315 319 324 320 316 317 318 316 314 313 312 311 311 311 310 309 311 313 312 312 312 311 309 308 307 306 306 306 306 306 305 305 305 304 304 304 302 301 301 301 301 300 300 300 300 300 301 300 300 300 300 300 300 300 300 299 299 298 298 299 299 299 299 299 300 300 300 300 300 300 299 299 299 299 299 299 298 297 297 297 297 297 296 296 295
316 317 320 321 319 319 319 316 313 313 312 310 310 310 310 310 310 310 311 311 311 310 309 308 307 306 306 306 306 306 305 305 305 304 304 304 303 302 301 300 300 300 300 300 300 301 301 300 300 300 300 300 300 300 299 299 299 299 298 299 299 299 299 299 299 299 299 300 300 300 299 299 299 298 298 298 298 298 297 297 297 297 297 297 296 295
316 318 320 319 318 319 318 313 311 311 310 309 310 311 310 310 310 309 309 309 308 308 307 306 305 305 306 306 305 305 305 305 304 304 304 304 303 302 301 300 300 300 300 300 301 301 300 300 300 300 300 300 300 299 299 299 299 299 299 299 299 299 299 299 298 298 298 298 298 298 298 298 298 298 298 298 297 297 297 296 296 296 297 297 296 295
317 317 317 317 316 315 314 311 311 314 313 310 309 309 308 308 308 307 307 306 306 306 305 305 305 305 305 305 305 305 305 304 304 304 304 303 302 301 301 300 300 300 300 300 300 301 300 300 300 300 300 300 300 299 299 299 299 299 299 299 299 299 299 299 299 298 298 298 297 298 298 298 298 298 297 297 297 296 296 296 296 296 296 297 297 296
317 317 315 317 319 320 318 314 314 318 318 312 308 308 307 306 306 306 306 306 305 305 305 305 305 304 304 304 304 304 305 305 304 304 303 303 302 301 300 300 300 300 300 300 300 301 301 300 300 300 300 300 300 299 299 299 299 299 298 298 299 299 299 299 299 299 298 298 297 297 298 297 297 297 297 297 296 296 296 296 296 295 296 296 297 297
320 319 316 319 324 323 318 313 312 317 317 310 307 308 307 305 306 306 306 305 305 304 305 305 305 305 305 304 304 305 305 305 304 304 303 302 302 301 300 300 300 300 300 300 300 301 301 301 301 301 300 300 300 300 299 299 299 298 298 298 298 299 299 299 299 299 298 297 297 297 298 297 297 297 297 296 296 296 296 296 296 295 295 296 296 297
Wind_Speed
4 4 5 7 7 6 7 8 7 7 6 5 4 4 3 2 3 4 2 2 5 7 5 4 4 6 7 6 4 4 3 3 9 9 11 12 10 9 9 9 11 9 8 13 17 18 19 19 20 21 22 21 19 17 16 15 13 11 10 10 10 8 5 4 3 1 1 3 4 4 4 4 4 4 5 7 9 11 11 11 11 11 11 12 12 13
4 6 7 6 6 7 7 8 8 7 5 4 4 3 1 2 4 4 1 3 1 6 2 2 7 7 6 7 6 3 4 5 2 3 10 13 10 8 10 10 9 8 9 13 15 17 20 20 21 24 24 24 22 21 20 19 19 18 16 17 15 12 10 8 6 3 2 2 3 3 4 5 5 6 6 7 8 10 10 10 10 10 11 11 12 12
4 6 6 5 6 7 6 6 8 7 6 4 3 4 1 2 3 4 3 3 3 5 2 2 8 7 7 9 6 4 5 2 6 2 9 12 10 7 10 9 8 9 10 10 10 13 19 19 21 24 24 24 23 23 22 22 21 21 19 18 15 13 11 8 5 3 3 3 2 2 3 4 5 6 6 7 9 10 9 8 9 10 11 12 12 12
4 5 6 7 6 8 5 5 7 6 5 4 4 5 3 3 2 1 5 6 6 4 6 7 7 6 7 8 6 5 5 2 3 4 8 8 9 8 9 8 8 11 11 9 8 10 15 17 20 22 21 21 24 23 23 22 22 20 19 18 15 14 11 8 6 4 3 2 1 1 2 3 5 6 6 7 9 9 8 8 8 9 10 11 11 10
4 5 6 8 7 8 6 6 8 6 4 3 4 5 4 3 3 3 1 3 7 6 5 9 6 2 5 6 6 4 3 2 1 4 6 7 9 10 10 8 7 11 10 8 9 9 11 15 18 20 19 21 24 23 22 22 21 20 19 17 16 14 12 9 7 6 4 3 2 3 3 5 7 9 10 10 12 11 10 10 9 9 9 10 10 10
5 5 7 10 7 8 7 6 7 7 4 3 5 7 7 6 4 6 5 4 6 2 3 4 3 0 3 4 6 6 5 4 1 2 4 6 10 11 9 8 8 10 9 9 9 9 11 14 16 18 19 22 23 21 22 21 20 19 18 16 16 15 13 11 9 7 5 5 5 6 7 9 11 13 14 13 13 13 12 12 11 10 10 11 11 11
4 4 7 10 8 8 8 6 7 8 6 3 5 8 9 7 7 7 7 4 3 2 6 3 2 2 2 2 5 7 8 7 4 5 5 3 7 9 7 8 9 8 8 9 10 10 11 13 15 17 18 21 21 19 21 20 19 18 17 16 15 15 14 12 10 8 7 7 7 8 10 12 13 14 13 12 12 12 11 10 10 11 12 12 13 12
6 7 7 9 8 7 8 6 6 9 7 3 5 9 10 8 7 7 6 5 3 2 4 3 1 2 3 4 5 7 8 7 5 7 7 4 6 8 7 8 9 8 8 9 10 9 10 12 15 15 17 19 19 19 20 20 20 18 17 16 15 14 14 12 10 8 8 9 9 10 11 12 13 13 12 11 10 10 10 9 10 10 11 12 13 13
6 10 8 9 8 6 6 5 8 10 6 4 6 10 10 9 8 7 6 4 2 3 3 4 1 3 2 4 7 7 7 6 5 6 8 8 8 8 8 9 10 10 8 8 10 9 9 13 15 16 18 20 20 20 20 20 20 18 18 16 15 15 13 11 9 8 8 9 9 9 10 11 11 11 10 10 10 10 10 10 10 10 10 11 12 13
4 9 9 8 7 6 6 5 9 11 5 4 6 6 5 6 6 6 6 4 3 4 7 8 4 3 1 2 5 6 6 7 7 7 8 9 11 9 8 9 10 10 8 7 10 11 10 13 16 17 19 21 20 19 18 18 18 18 19 18 17 16 14 13 11 9 9 8 8 8 9 10 10 10 10 10 11 11 11 11 12 12 11 11 12 12
3 5 7 6 6 5 6 5 7 10 7 5 5 3 3 1 1 3 3 4 4 3 7 10 7 3 1 3 5 5 5 9 10 9 10 9 11 10 8 9 9 9 7 6 9 12 11 14 16 18 19 20 20 19 18 18 17 18 19 19 18 16 15 15 13 12 12 10 9 9 9 10 11 11 10 11 13 13 13 13 13 12 12 12 13 12
5 4 5 4 5 6 6 5 4 6 7 5 4 3 1 3 2 3 3 3 4 6 6 9 7 3 3 5 5 4 3 9 11 10 12 11 10 10 8 8 8 9 7 6 8 9 9 12 15 17 17 18 19 18 19 19 17 17 18 18 19 17 15 15 14 15 14 14 14 13 12 13 13 12 12 13 14 15 15 15 14 13 13 14 14 14
5 4 2 3 6 8 7 5 3 4 5 5 4 6 4 1 1 2 1 1 5 5 5 7 10 3 5 4 3 5 6 8 9 9 12 12 11 10 10 8 7 8 7 6 6 6 6 9 11 13 14 15 17 17 19 19 18 18 18 18 20 19 17 16 15 15 15 15 15 15 15 15 14 14 14 15 15 15 16 16 15 16 16 17 16 16
4 5 5 4 5 7 9 7 5 4 5 7 6 6 6 4 4 5 3 1 3 3 5 3 10 5 3 2 3 5 8 8 9 10 11 12 11 10 10 8 7 8 7 6 6 5 6 7 9 10 11 13 17 18 19 18 18 20 20 19 20 20 18 17 16 15 15 16 15 14 14 14 14 15 15 16 16 15 16 16 16 17 17 17 17 16
6 5 6 7 4 6 11 9 7 6 5 6 5 6 4 5 5 4 4 3 3 2 4 1 6 3 1 1 4 3 9 9 10 10 10 11 10 9 9 8 8 7 6 6 6 6 7 8 9 10 12 16 19 20 19 18 19 21 21 20 20 20 18 17 17 17 17 16 15 14 14 13 14 14 15 15 15 15 15 16 16 17 17 17 16 15
8 7 5 6 5 7 10 7 7 7 4 4 4 6 5 5 5 2 3 6 5 3 1 1 1 1 1 1 2 7 11 11 11 12 12 10 8 9 9 8 7 6 6 6 6 6 8 10 11 12 15 18 20 21 21 20 21 22 22 21 20 20 19 18 18 17 17 16 15 14 14 13 13 13 14 14 15 15 16 16 17 17 17 17 16 15
6 5 5 4 7 9 9 8 9 7 5 3 4 6 5 3 6 3 2 2 4 4 2 1 1 1 1 1 4 11 12 12 13 13 12 11 10 11 9 7 7 6 6 6 5 6 8 10 13 14 16 19 20 21 21 21 22 22 22 22 21 20 20 19 18 17 16 16 16 16 15 14 14 14 14 15 16 16 17 17 18 19 19 19 18 17
5 4 6 5 9 10 8 8 9 10 8 5 6 7 2 3 2 2 2 2 3 3 1 1 3 4 3 1 5 11 11 11 13 13 12 11 11 11 9 8 7 7 6 6 6 7 8 11 14 15 16 19 20 21 21 21 21 23 23 22 22 21 20 19 18 17 17 16 17 16 15 15 15 15 16 17 18 18 19 20 20 21 22 22 21 20
3 2 6 6 9 8 5 6 6 7 6 4 6 7 5 3 3 1 3 3 2 2 1 1 4 4 4 4 8 12 12 12 13 12 13 12 11 11 10 9 8 7 6 6 6 5 7 11 14 16 17 19 20 20 20 21 23 24 24 23 23 22 21 20 19 18 18 18 18 17 16 15 15 16 17 18 19 20 21 21 21 22 23 23 22 22
2 2 4 5 7 6 4 4 5 6 3 2 5 6 4 4 4 3 3 3 4 3 2 3 4 4 3 6 12 15 14 15 15 12 12 12 11 10 10 9 8 7 6 6 5 5 8 13 14 16 18 19 21 22 22 24 25 25 24 23 23 22 21 20 20 20 20 19 18 17 16 16 16 16 17 18 20 22 23 22 22 22 23 23 24 23
2 2 2 4 2 5 4 5 7 8 6 4 5 5 3 2 2 2 1 2 5 4 3 3 3 4 3 6 13 15 13 13 14 12 11 11 10 9 10 9 8 7 6 5 6 7 10 13 14 16 19 22 24 25 26 26 26 25 24 23 23 22 21 20 20 20 20 19 18 17 16 16 16 17 17 18 19 21 22 22 22 22 23 24 24 24
1 3 2 2 1 4 6 5 8 11 9 7 6 6 5 4 4 3 2 0 3 4 5 4 3 4 3 3 9 12 11 11 12 13 12 11 11 10 9 9 8 7 6 6 7 9 12 13 15 18 22 25 26 27 26 25 25 24 24 23 22 22 21 20 20 20 19 18 17 15 15 15 16 17 17 17 17 18 19 20 21 21 22 23 23 23
3 3 2 3 3 6 8 5 8 12 9 7 6 5 5 4 5 6 4 3 2 3 2 3 1 4 5 1 6 9 10 11 11 12 12 11 11 10 9 9 8 6 6 7 8 10 13 15 17 20 23 25 25 25 25 25 24 24 23 22 22 22 22 21 21 21 19 18 18 18 18 18 18 18 18 17 17 17 18 18 19 19 20 22 23 23
3 2 1 3 3 4 6 4 1 6 7 5 3 3 5 4 5 6 5 4 4 3 3 3 0 4 4 0 7 11 11 11 11 12 13 11 9 9 10 9 7 7 8 8 8 10 14 15 17 20 22 23 23 24 24 24 23 23 22 22 22 22 22 21 21 21 20 19 19 20 21 21 21 21 20 20 19 18 18 18 18 19 19 21 23 23
3 2 2 1 2 2 3 2 1 2 3 4 3 3 5 6 7 5 3 4 3 4 6 5 3 4 1 3 8 12 13 12 11 12 14 12 9 8 9 8 7 8 9 10 9 10 12 13 15 17 20 21 22 22 23 23 23 23 22 21 22 22 22 21 21 19 18 17 17 18 19 20 21 21 22 21 21 20 19 19 18 19 19 21 22 23
4 3 3 3 3 3 3 4 4 3 3 1 2 5 5 7 9 5 3 4 3 4 5 5 4 2 3 7 10 12 14 13 13 13 12 12 11 10 9 8 8 8 10 11 10 10 10 12 14 17 19 21 21 22 22 23 23 23 22 21 22 22 22 21 20 18 16 15 15 16 16 17 18 19 20 21 21 21 21 21 20 20 21 22 23 24
3 2 4 6 6 6 7 7 5 5 4 1 3 5 4 6 8 6 5 4 4 4 3 3 4 7 8 9 12 13 14 14 14 13 12 10 10 10 9 9 9 9 9 9 9 9 10 11 14 17 19 20 21 22 23 23 24 23 22 21 21 21 21 20 19 18 17 16 16 16 15 15 15 17 19 20 21 21 21 22 22 23 23 24 25 26
5 2 5 6 5 5 4 7 6 4 6 6 7 7 6 6 8 8 4 5 6 6 3 4 8 12 11 12 14 16 15 15 14 13 12 11 10 10 10 11 11 10 10 9 9 10 10 10 13 17 18 19 21 22 23 23 22 22 22 21 20 19 18 18 19 19 19 19 19 18 17 16 15 16 18 20 21 21 22 22 23 24 24 25 26 27
6 3 5 4 0 4 5 6 4 4 4 3 5 4 4 7 10 10 6 6 8 6 5 10 15 14 14 17 17 16 15 15 14 12 12 12 12 12 12 13 13 11 11 11 10 11 11 10 13 17 17 19 21 22 21 21 21 21 21 20 19 19 19 20 21 20 20 21 21 20 20 19 18 17 18 21 22 22 22 23 23 24 24 25 26 27
4 3 3 5 2 5 7 8 2 7 6 5 5 4 2 4 6 6 5 5 6 3 4 14 15 8 9 13 13 12 12 12 12 11 11 12 13 14 13 13 13 12 11 12 11 10 10 11 14 18 18 19 21 21 20 20 21 21 21 20 20 20 20 21 21 20 20 21 21 22 21 21 19 19 20 22 23 23 23 24 24 24 25 25 26 26
4 2 2 6 4 6 7 9 5 7 9 6 5 6 6 5 4 4 4 5 6 5 6 12 10 2 3 8 11 11 12 13 13 13 12 13 13 14 13 12 13 13 11 11 11 10 9 11 15 17 19 20 21 20 20 21 22 22 21 21 21 21 21 22 21 20 19 19 20 21 22 22 21 21 21 22 23 23 23 24 24 25 25 25 25 26
4 2 1 5 4 4 4 6 6 4 10 8 5 6 5 3 4 2 2 3 6 10 12 10 7 4 6 11 12 12 14 15 16 15 13 12 13 15 14 13 12 12 12 11 11 10 9 10 14 17 19 21 22 21 22 24 24 23 22 22 22 21 21 22 21 20 19 18 18 19 20 21 22 22 22 22 22 22 22 23 24 24 24 24 24 25
6 6 1 3 4 3 3 2 5 3 7 4 2 2 1 1 3 3 0 0 6 14 12 7 6 8 11 15 16 16 17 18 17 15 14 13 13 13 13 13 13 12 11 11 10 10 10 12 16 19 21 23 23 24 26 27 27 24 23 23 21 21 21 21 21 20 19 18 18 17 18 19 20 21 20 20 20 20 21 21 21 22 23 23 23 23
5 8 4 2 4 4 5 2 2 1 3 3 3 2 5 4 4 5 3 2 4 6 5 4 7 13 15 16 19 19 18 17 15 15 15 15 14 13 11 12 12 11 11 10 10 10 12 15 18 21 23 24 24 26 28 29 28 26 24 23 21 20 20 20 20 19 19 19 18 18 17 17 17 17 17 17 17 18 18 19 19 19 20 22 23 23
6 6 4 2 3 4 2 2 2 3 5 4 5 2 4 5 8 8 5 4 4 2 4 9 12 16 16 14 14 14 13 13 13 13 14 14 13 14 14 13 12 12 11 10 9 11 14 18 20 21 22 22 24 27 30 30 28 26 24 23 21 20 19 19 19 19 19 18 18 18 18 17 16 15 14 14 14 15 15 16 16 17 18 20 22 22
8 6 4 3 2 3 2 3 3 4 4 4 6 3 4 7 9 8 4 3 5 2 5 12 12 13 13 12 12 12 11 11 10 7 9 11 11 13 14 12 12 12 12 12 13 14 17 20 22 22 21 22 25 29 31 31 29 27 24 22 21 20 19 19 18 18 18 18 18 18 17 17 16 15 14 14 13 14 14 15 15 16 17 18 20 21
6 6 4 3 1 2 4 2 1 3 4 3 2 2 4 5 6 7 4 2 4 3 4 12 15 13 14 13 13 13 13 12 7 3 4 9 11 13 14 14 14 14 15 17 19 18 18 21 23 22 22 25 28 30 32 31 29 27 25 22 20 20 19 18 18 17 16 17 18 18 17 17 18 17 16 16 16 16 16 16 17 17 17 18 19 21
4 4 5 4 1 2 4 2 2 2 3 5 6 7 5 4 6 7 5 1 4 3 5 13 16 16 16 16 15 14 13 11 7 4 5 10 12 14 16 17 18 19 19 19 19 18 19 21 23 24 26 28 29 29 30 31 28 26 24 22 20 19 18 18 18 16 16 16 17 17 17 18 19 19 18 18 18 19 19 18 18 18 18 18 19 21
7 5 5 5 3 2 4 3 3 3 4 6 7 7 5 5 6 5 4 2 5 5 7 13 16 17 17 18 18 17 13 10 9 7 8 12 14 15 15 16 18 21 20 19 20 21 23 24 25 27 29 29 27 27 28 29 28 26 24 22 19 18 18 18 17 16 16 16 16 16 17 18 19 19 19 20 19 19 20 19 19 18 18 19 20 21
6 5 4 5 3 3 4 3 3 3 3 4 5 5 6 5 5 6 2 5 7 11 11 14 17 17 16 17 17 16 12 10 9 9 11 14 17 18 19 18 19 22 22 22 24 26 27 29 29 29 29 28 27 27 27 27 27 25 23 21 19 17 17 18 17 16 16 16 15 15 16 17 17 18 18 19 19 19 19 19 18 19 19 21 22 23
3 4 3 4 4 3 4 2 2 3 4 4 4 6 7 5 4 4 5 6 10 14 13 14 17 16 16 16 13 9 5 4 9 12 14 16 16 17 21 22 23 24 25 26 28 29 30 30 30 29 27 26 26 27 27 26 25 24 23 21 18 15 15 17 17 16 15 15 15 14 15 15 16 16 16 17 17 17 17 17 18 18 19 21 23 25
2 2 2 3 3 3 3 2 0 3 4 3 4 4 4 4 3 5 5 4 12 16 14 14 15 15 16 14 8 5 6 11 15 14 14 16 16 16 19 23 25 26 27 27 28 29 30 30 29 28 26 25 25 26 26 25 23 22 22 20 17 15 14 15 16 16 15 14 14 13 13 14 14 14 14 14 15 15 15 16 16 17 18 20 23 25
3 2 1 2 3 2 2 2 2 2 4 6 9 3 1 3 5 4 1 5 11 15 14 14 13 13 14 11 8 9 13 16 17 14 13 15 15 16 20 23 25 25 26 25 26 29 31 29 27 27 25 24 24 24 24 24 23 22 22 19 17 16 15 14 15 15 15 14 13 12 11 11 12 12 12 12 13 13 14 14 15 16 18 20 22 24
1 2 2 2 3 3 3 2 3 4 5 3 5 4 4 4 4 4 5 6 8 9 10 11 11 11 11 11 12 14 16 17 16 15 14 14 15 16 18 22 25 25 25 25 26 29 31 28 26 26 25 24 24 23 23 23 22 21 20 18 17 19 18 15 14 16 16 14 13 11 10 9 9 9 8 9 11 11 12 12 14 15 17 18 20 22
2 2 4 3 2 3 4 5 4 3 3 2 1 1 3 3 3 5 8 9 8 8 8 9 11 11 11 12 14 15 15 16 16 15 14 14 14 16 18 21 25 26 25 26 28 30 30 28 26 26 25 24 24 23 22 22 21 20 18 18 19 20 19 16 16 16 17 15 12 11 9 9 8 7 6 7 9 10 10 11 13 14 15 17 18 20
2 1 2 2 1 1 1 2 1 2 2 2 3 2 1 2 3 4 7 9 9 8 9 10 11 11 12 14 15 14 14 16 15 14 14 14 13 16 19 22 24 26 26 26 27 29 30 29 28 27 26 24 23 22 22 22 21 19 18 19 20 20 19 19 18 17 16 14 11 9 9 9 8 7 6 6 7 8 9 10 11 12 13 15 17 18
2 1 3 3 2 3 1 2 2 2 2 2 3 3 4 4 3 3 5 7 6 7 9 10 12 12 12 13 15 15 15 16 16 14 13 12 12 15 19 21 23 25 26 27 28 30 30 29 28 26 25 24 23 23 23 22 20 19 19 20 21 20 20 20 19 17 15 13 11 9 9 9 8 7 7 6 7 7 8 9 10 10 11 13 15 17
1 2 3 2 2 2 2 3 1 2 2 2 3 2 3 4 5 5 5 6 8 9 10 11 12 12 11 12 15 17 16 15 16 15 13 11 11 14 18 21 23 25 26 28 30 31 30 28 27 25 24 24 24 23 23 21 20 19 18 18 18 17 17 18 17 16 14 13 11 11 10 9 8 7 6 6 6 6 7 8 9 9 9 10 12 14
2 3 2 2 3 1 2 2 2 2 3 3 3 2 3 5 7 8 8 9 11 12 11 11 11 12 12 13 15 17 17 15 15 16 14 11 11 15 20 23 24 25 26 28 30 30 29 27 26 25 24 24 24 24 23 21 20 18 16 15 14 13 13 14 14 13 13 12 12 11 10 10 8 7 6 6 6 5 5 7 9 9 8 8 9 11
3 2 3 4 3 1 4 5 5 3 1 1 2 3 4 5 8 10 10 10 12 13 14 13 11 11 14 17 17 17 16 14 15 16 15 14 15 19 23 25 25 26 27 29 30 29 27 25 25 24 23 24 24 24 22 21 20 18 16 14 13 13 14 14 13 12 12 12 12 11 10 9 8 7 7 7 6 5 5 6 7 9 9 8 8 8
3 5 5 5 3 4 5 6 5 4 3 2 4 5 4 5 9 10 10 11 12 13 14 15 14 12 13 16 20 20 16 14 17 18 14 14 19 23 26 26 26 26 27 29 29 28 26 25 24 24 24 25 25 23 22 21 20 18 15 14 13 13 14 14 13 13 13 12 11 11 10 8 7 6 7 7 5 5 5 6 7 8 9 8 8 7
Wind_Direction
145 159 193 200 196 180 177 172 174 179 156 147 138 132 160 176 256 259 278 275 119 96 354 340 87 109 135 128 69 28 353 156 139 127 122 116 115 120 112 104 99 95 94 96 99 97 95 93 91 89 88 90 91 92 96 96 96 100 103 101 99 103 114 120 120 136 275 289 305 320 320 318 319 319 318 325 331 329 325 322 320 321 323 325 330 333
149 188 210 198 178 164 164 171 174 176 162 145 141 143 166 203 247 271 256 266 79 88 12 10 82 71 68 75 64 59 34 351 332 125 118 111 111 112 104 102 99 100 95 87 86 89 89 87 87 87 86 87 86 86 91 91 91 95 96 96 96 100 105 101 96 90 67 30 11 5 2 359 351 343 337 341 349 343 336 332 330 331 328 327 329 330
186 215 207 180 163 149 151 168 172 179 171 155 143 136 181 248 238 293 334 343 24 88 139 102 88 75 66 75 70 94 113 316 293 142 115 112 113 108 106 108 111 110 96 83 80 83 85 84 85 86 84 86 86 87 90 91 93 96 95 95 97 101 103 99 98 95 68 39 25 26 13 4 360 2 359 357 358 352 351 354 347 342 336 334 337 337
191 233 199 170 149 139 153 179 171 186 182 148 135 141 205 243 165 353 347 6 25 77 141 123 96 92 84 90 96 91 117 215 288 97 98 105 110 105 106 111 117 111 98 88 83 77 80 79 80 82 82 84 86 84 85 88 90 91 91 92 94 97 97 94 92 88 77 52 22 33 12 19 32 37 36 26 18 7 6 8 357 351 346 345 350 352
218 245 176 154 153 150 162 193 175 181 205 184 174 169 181 191 145 131 114 53 46 51 129 117 87 101 104 115 130 103 103 126 21 82 91 99 104 100 104 106 99 97 96 95 87 77 77 76 77 81 83 82 80 78 79 83 85 84 86 88 88 91 90 83 75 78 92 94 97 103 88 78 70 60 51 39 33 30 26 23 17 11 6 7 12 14
243 248 158 153 171 167 169 198 185 172 188 230 219 189 166 146 120 118 120 85 64 28 239 136 98 191 93 119 148 135 133 131 103 93 92 99 108 107 109 106 90 86 93 93 86 82 80 81 82 81 80 81 78 77 77 78 81 81 81 81 80 80 79 74 66 65 82 90 91 92 84 78 70 60 52 43 40 40 40 37 31 23 16 17 21 22
217 210 164 167 172 171 186 208 194 166 157 232 232 176 153 135 128 134 123 96 106 208 243 211 172 168 105 163 175 146 146 150 146 126 110 106 113 111 110 101 94 93 97 95 87 82 81 84 85 79 77 79 78 78 78 77 78 79 78 77 74 72 71 69 65 59 67 78 81 82 80 75 70 65 58 52 51 50 47 43 36 28 21 19 20 19
180 177 177 179 168 173 200 209 187 160 147 228 220 158 145 142 154 162 135 124 165 208 255 259 145 143 154 176 165 146 145 147 150 138 132 135 113 104 101 96 99 103 99 98 94 84 82 85 85 82 78 78 81 82 80 78 79 80 80 79 77 74 70 67 66 62 62 68 73 76 76 71 67 64 56 50 49 46 43 41 40 36 31 30 29 27
177 180 189 179 177 191 197 179 161 155 156 215 183 149 153 167 179 176 148 147 163 148 236 257 166 152 183 148 139 140 139 144 162 156 144 135 118 109 108 104 101 99 92 95 98 89 86 88 87 86 84 83 84 83 81 81 81 82 82 81 80 77 75 72 71 70 65 63 64 64 62 61 59 55 50 42 34 29 27 28 30 31 30 30 30 32
196 183 181 172 190 198 172 156 155 160 179 195 151 123 133 168 182 170 154 141 129 162 214 223 191 154 191 171 145 142 152 169 172 158 147 134 124 122 118 111 103 97 94 94 95 91 88 93 94 92 88 85 84 83 86 85 82 82 80 78 78 78 82 83 82 79 73 65 56 51 50 50 48 43 38 30 24 20 15 15 19 22 24 23 21 21
251 173 170 177 193 174 157 174 163 162 167 142 125 78 53 123 107 97 117 108 126 218 223 202 186 142 181 221 177 165 170 168 162 149 147 134 124 127 116 110 108 102 101 96 94 94 92 95 96 94 89 85 83 83 85 85 83 82 78 76 78 81 84 85 84 82 77 71 64 56 53 49 46 41 34 30 28 24 20 20 20 22 25 25 22 15
266 191 178 167 158 138 153 195 167 155 161 133 118 127 67 325 20 43 19 89 165 240 242 189 162 125 219 224 188 178 150 152 157 150 144 133 123 126 115 111 112 105 102 93 91 94 93 92 91 92 91 85 80 78 79 82 86 86 83 83 83 83 84 85 86 83 77 75 71 66 63 58 53 50 48 46 43 37 33 30 27 27 27 26 24 19
244 245 239 157 159 152 155 187 162 144 166 149 122 139 158 257 226 202 253 181 203 245 265 172 148 163 247 238 204 169 133 138 146 135 134 129 124 126 119 117 112 104 103 93 93 98 94 94 94 99 100 89 79 77 80 85 92 95 93 91 88 84 86 89 89 84 79 78 75 71 68 64 61 60 59 59 54 48 43 38 34 32 29 27 26 23
222 288 271 191 181 170 165 177 175 174 181 174 161 159 169 162 169 210 216 234 229 249 315 160 158 189 263 290 270 173 137 125 119 116 122 122 122 122 115 112 103 102 107 101 104 108 99 101 105 109 106 91 84 85 87 91 99 102 99 96 92 87 88 90 88 85 82 82 80 76 71 67 66 64 63 61 56 52 47 43 40 36 33 31 29 27
184 245 241 196 190 173 180 188 163 149 166 177 158 140 165 173 164 196 197 184 202 205 337 350 169 203 229 310 308 146 130 115 110 113 114 114 117 115 107 105 105 107 112 111 112 110 108 112 108 104 99 92 92 93 93 97 104 106 103 100 95 89 89 90 88 86 84 84 83 79 74 70 68 66 64 62 56 52 47 41 39 36 33 31 28 25
185 232 248 201 200 175 179 186 141 130 162 182 139 139 195 198 144 118 177 173 159 134 24 322 180 317 31 36 45 124 124 113 114 118 118 116 114 112 107 109 114 117 119 118 116 113 116 113 99 95 96 94 95 97 98 104 109 108 104 100 96 93 92 91 88 86 85 85 82 78 75 71 68 65 61 59 55 51 47 44 41 39 36 31 28 23
175 247 281 191 206 200 177 172 162 160 178 167 156 180 206 164 121 116 184 134 102 124 142 203 166 125 90 57 118 131 123 118 125 127 126 124 118 116 114 118 122 125 126 122 122 125 118 103 95 97 100 97 96 97 102 109 110 108 104 101 99 96 94 92 89 88 86 84 81 76 74 69 63 61 59 57 55 51 49 48 46 43 39 35 32 27
155 238 268 175 200 222 183 165 184 178 157 145 183 192 152 82 102 131 151 49 56 127 165 265 191 181 180 199 148 137 129 131 136 133 131 128 126 124 122 127 133 133 133 131 131 127 110 100 103 107 104 101 100 101 106 110 109 106 105 103 101 96 94 92 91 90 87 83 79 75 72 68 64 63 62 60 56 52 49 48 46 44 40 37 35 31
152 224 265 192 188 215 169 150 201 199 168 155 180 173 142 165 216 138 153 172 129 137 233 231 201 208 206 187 162 153 151 149 143 140 141 139 136 132 128 133 136 135 138 136 132 121 107 111 114 112 108 104 101 100 104 107 108 107 105 104 101 97 96 96 94 91 86 82 80 75 72 70 69 69 66 61 56 52 50 48 47 45 41 37 35 33
134 117 272 233 184 180 152 157 201 213 211 119 148 164 161 176 186 164 164 162 140 152 203 175 186 225 221 181 171 169 165 155 150 148 145 142 140 134 133 137 138 140 143 135 124 111 115 121 119 114 109 101 97 98 102 105 106 107 105 104 103 101 100 98 95 92 88 84 82 78 74 72 72 71 68 64 57 51 49 49 48 47 41 37 34 33
69 125 257 282 188 159 184 208 188 181 183 158 153 174 175 127 134 153 143 107 124 146 165 158 204 238 217 182 180 175 164 153 148 143 138 137 136 134 137 141 141 140 136 130 124 122 124 122 114 107 102 98 98 101 105 106 106 106 106 105 105 104 102 99 97 96 92 88 86 82 79 74 72 71 70 67 60 52 49 49 50 48 42 37 34 33
133 151 190 289 222 180 226 229 177 172 175 165 165 182 176 140 121 141 214 245 102 129 162 161 202 249 259 199 179 168 155 146 139 134 132 133 134 136 141 140 137 133 130 134 132 129 127 121 110 102 99 100 102 104 107 108 107 108 107 107 107 105 103 100 99 99 96 92 88 84 81 78 74 72 69 66 62 56 51 49 51 49 42 38 36 37
161 129 151 257 239 214 241 248 185 178 165 154 175 181 158 138 131 148 195 210 100 95 134 117 151 262 290 270 147 144 143 139 133 128 128 132 136 139 139 131 126 123 122 127 125 124 124 120 112 105 102 104 107 109 110 109 109 110 109 109 108 105 103 101 100 99 96 92 86 82 80 78 76 73 69 66 63 61 56 53 54 51 44 39 40 42
176 136 149 281 293 258 273 317 168 173 146 148 197 165 146 162 153 150 174 166 136 148 132 90 235 260 287 136 130 129 132 133 134 131 129 133 140 141 137 130 125 122 118 118 118 121 124 119 111 106 106 109 111 112 113 111 112 111 110 110 108 106 104 103 102 100 96 92 89 85 81 79 77 73 69 66 64 64 62 59 58 55 48 42 41 42
208 177 115 310 333 315 293 8 50 229 181 175 190 158 155 146 122 123 132 108 140 193 155 140 214 254 238 136 125 127 132 135 139 139 135 138 144 144 134 124 124 126 124 124 123 123 123 115 108 109 112 114 115 116 115 114 114 111 110 110 109 107 105 103 103 102 100 98 96 91 86 83 80 74 68 65 64 64 64 63 61 57 50 43 40 40
187 177 136 166 178 174 204 205 200 206 209 206 146 148 153 140 135 141 127 120 189 213 148 147 197 210 138 137 133 136 141 143 146 147 144 146 147 146 135 126 129 131 129 130 128 124 120 112 110 115 118 119 119 119 118 115 114 112 111 110 109 108 106 103 102 102 101 101 98 95 91 87 82 75 69 65 64 64 63 62 60 56 51 46 44 43
134 165 158 166 189 197 202 219 215 161 159 181 132 142 155 150 140 120 113 159 189 167 157 202 169 143 149 155 151 154 153 151 153 152 148 146 141 136 131 129 131 129 129 130 127 124 120 114 117 121 123 122 120 120 119 117 116 115 114 112 111 111 108 104 103 101 98 97 94 93 92 89 86 80 72 67 66 66 63 60 58 55 53 50 48 46
108 189 191 167 206 240 230 237 232 157 163 174 151 155 167 153 136 127 152 192 156 137 191 217 158 150 164 172 167 166 161 155 156 154 148 142 135 131 130 130 129 128 130 130 128 128 124 121 125 126 126 124 121 121 121 119 119 119 117 114 112 109 107 107 108 103 96 92 89 88 89 90 92 88 77 70 68 67 65 62 59 56 54 51 48 45
125 199 207 145 250 316 335 295 249 127 121 122 113 136 163 165 163 159 173 183 155 157 204 184 171 170 174 177 174 167 160 152 148 147 142 139 136 135 136 135 133 135 136 135 135 133 129 129 131 129 129 128 125 124 124 121 122 123 119 114 110 105 105 112 114 106 97 91 87 85 88 91 95 91 80 71 70 69 67 64 60 56 53 50 47 44
143 196 183 122 52 339 348 329 294 123 99 54 51 46 72 153 168 147 137 152 141 134 173 164 167 174 171 172 163 148 143 138 136 140 142 142 141 140 142 141 140 141 141 139 139 135 133 135 133 129 130 131 131 130 127 124 125 127 121 115 110 106 108 117 118 109 100 94 89 87 88 91 93 89 80 74 71 69 66 63 59 56 53 50 47 43
174 205 168 106 54 330 342 349 354 119 115 92 60 30 41 85 97 89 117 131 102 77 117 138 137 98 120 138 131 130 136 136 141 148 147 145 145 144 145 145 144 144 143 141 139 135 134 133 129 127 130 135 137 135 130 129 130 129 123 117 113 110 112 119 120 111 103 98 94 90 88 89 90 86 80 75 71 67 65 61 58 55 52 49 46 42
159 138 12 93 82 305 326 360 344 72 100 95 58 17 17 83 120 133 165 168 133 123 122 124 138 167 153 136 131 137 143 144 150 153 149 150 153 151 151 150 148 146 144 142 138 135 134 131 127 126 130 137 141 137 132 134 135 131 125 121 117 115 116 119 118 112 106 101 98 94 91 89 87 84 79 74 71 67 64 61 57 54 50 47 43 41
148 136 135 112 118 259 278 316 310 4 89 99 348 345 291 185 142 141 66 101 139 135 136 158 181 164 150 144 144 150 156 158 159 157 153 153 154 154 153 150 146 145 143 141 139 136 135 132 130 129 130 137 143 139 136 138 137 133 129 125 121 119 119 118 115 111 106 102 99 97 94 91 87 83 79 75 72 68 64 60 57 53 49 45 43 41
142 136 147 129 126 201 246 290 330 4 160 219 285 238 209 197 142 127 98 95 121 126 133 139 137 143 151 157 158 160 163 162 157 156 156 156 155 154 151 146 143 142 141 140 138 136 133 132 133 132 131 135 139 139 140 140 137 133 131 127 123 121 121 119 116 111 107 102 98 94 94 92 89 85 81 78 73 68 63 59 55 51 47 43 42 41
127 123 130 90 116 172 234 37 113 201 230 271 321 291 199 155 118 101 67 31 12 23 110 119 134 152 157 155 154 151 149 147 146 153 158 157 155 150 146 146 144 141 142 142 139 137 134 134 135 134 131 132 134 138 142 141 137 135 132 127 124 124 123 122 120 116 110 104 97 93 91 91 90 88 83 79 74 68 63 57 52 49 44 41 42 41
128 129 119 67 90 144 76 67 174 238 293 339 352 357 132 123 114 103 67 350 335 337 138 133 138 148 141 134 137 133 130 131 128 138 151 149 147 145 142 145 145 143 146 147 145 142 138 138 139 137 133 133 135 139 144 144 139 136 133 129 128 128 127 127 126 122 116 108 99 92 90 91 91 89 85 80 76 70 64 57 51 47 44 43 43 41
124 137 123 73 52 129 108 108 270 328 328 322 310 239 174 156 153 140 134 262 289 299 158 140 138 140 136 132 134 130 126 122 111 100 137 136 137 137 135 137 142 143 144 147 147 144 141 142 143 138 134 135 137 140 145 146 142 137 135 134 135 135 134 132 131 128 121 114 103 94 91 92 92 90 86 82 78 73 66 60 54 50 48 47 44 39
77 128 140 130 121 113 108 102 55 17 281 244 223 224 214 188 175 147 121 229 256 248 169 147 142 144 141 137 137 135 129 131 145 173 157 138 136 134 133 137 141 140 141 143 143 141 142 145 145 140 136 137 138 140 144 148 146 139 138 141 141 141 139 135 133 130 126 122 112 100 95 97 95 92 90 85 80 76 69 63 59 55 53 51 45 39
47 65 99 106 110 126 120 133 164 188 242 234 209 209 203 181 166 120 77 274 222 184 165 153 148 150 151 148 147 146 146 157 174 179 159 145 141 138 138 138 137 136 138 143 144 143 143 144 143 140 137 137 138 139 143 149 149 146 145 148 148 146 143 138 134 130 126 127 122 109 102 101 98 94 91 87 82 77 71 66 63 60 58 53 46 41
32 31 64 100 130 154 130 142 201 214 256 241 193 181 181 169 126 96 67 253 196 167 167 163 157 157 156 154 155 159 168 177 173 166 155 146 142 141 142 140 136 135 138 143 145 143 141 140 139 137 135 135 137 140 142 147 151 153 153 154 153 149 143 139 137 132 127 130 129 119 107 102 99 95 91 87 82 78 72 67 64 61 56 52 46 41
26 22 64 118 135 144 134 141 234 244 253 238 183 167 165 140 101 139 216 227 174 163 168 167 161 159 159 161 165 170 170 126 129 143 148 142 139 142 141 137 135 138 141 142 142 140 138 138 138 136 134 135 138 142 142 144 148 154 159 162 158 151 144 142 141 138 133 134 134 125 112 103 99 95 92 86 81 76 71 66 62 58 53 48 43 39
120 61 67 115 125 135 138 126 273 266 249 183 133 146 156 139 173 219 228 180 158 161 163 163 163 163 161 162 157 137 114 109 121 137 144 140 140 142 139 135 134 139 143 143 141 140 138 138 139 138 137 136 139 144 145 142 141 145 153 159 160 156 154 152 149 144 138 137 138 131 117 107 99 95 91 86 78 73 69 64 59 54 50 44 40 37
156 131 117 150 149 117 77 78 109 236 226 150 124 119 210 185 198 213 160 132 156 160 157 159 165 165 161 153 133 124 125 124 130 141 142 139 141 141 139 138 137 142 146 144 142 142 141 140 141 142 140 136 137 142 146 144 139 136 137 141 146 149 151 153 155 152 145 141 141 134 122 112 104 95 88 81 74 68 64 59 55 51 46 41 38 34
175 137 157 208 182 130 115 173 194 217 239 191 138 164 210 196 188 173 136 134 154 158 155 158 161 160 154 142 132 132 131 132 139 144 142 142 142 139 137 138 139 143 146 144 142 143 142 142 143 144 143 139 136 138 143 145 141 135 132 131 133 136 137 141 149 153 150 145 142 133 122 113 107 99 87 76 68 62 59 53 49 47 43 39 36 32
240 177 164 176 178 154 173 214 226 234 259 284 359 258 219 163 151 154 141 143 157 163 160 156 153 150 143 137 134 134 135 139 143 144 143 143 142 138 138 139 142 145 146 145 143 142 142 142 142 144 145 143 138 137 142 145 142 136 132 129 128 128 130 131 136 146 151 149 142 131 121 113 106 98 84 71 61 57 54 47 42 42 40 37 35 30
272 216 125 117 174 213 207 234 282 341 337 358 28 14 35 97 121 137 138 148 160 159 155 152 147 145 144 141 137 135 138 141 140 142 145 143 140 139 139 140 144 147 147 145 144 143 141 141 142 143 143 142 142 140 140 143 144 137 130 127 126 125 126 126 129 137 147 148 143 136 127 118 110 98 81 68 59 55 51 43 37 35 34 34 33 29
277 138 83 82 146 183 242 320 340 10 4 41 66 61 57 60 64 105 135 147 145 137 138 138 136 138 143 141 137 136 139 141 139 141 144 142 140 141 140 142 147 149 149 148 146 145 143 142 143 143 142 143 143 140 138 141 143 139 131 127 125 125 124 126 128 132 138 141 143 142 134 123 115 103 83 69 62 58 51 43 36 30 28 29 28 26
215 115 90 70 110 164 246 291 5 50 26 27 56 84 107 100 86 85 105 116 114 114 122 129 133 138 141 139 137 137 139 143 144 145 145 142 139 139 140 143 148 150 151 150 148 146 146 146 145 144 144 145 144 140 138 138 139 141 137 131 129 127 124 124 127 128 130 131 133 134 133 129 123 107 85 73 69 64 53 45 37 28 25 25 23 22
135 107 139 112 79 58 257 221 140 75 18 7 31 73 124 131 118 109 109 113 115 117 121 128 134 139 138 140 140 138 139 146 148 145 143 140 139 142 144 146 149 151 151 150 149 150 150 150 150 148 147 149 148 144 141 139 139 143 145 144 145 141 132 127 125 123 121 119 117 121 129 130 123 106 88 80 75 66 55 45 37 30 25 22 20 20
116 127 153 125 110 221 225 192 169 146 122 223 176 131 134 135 124 121 124 126 128 131 133 132 132 133 137 142 144 141 141 147 150 146 144 144 148 150 150 149 150 152 152 150 150 153 154 154 156 155 152 153 152 148 145 143 141 140 142 148 157 157 147 139 133 129 126 120 110 110 119 123 118 105 92 85 72 56 45 40 35 31 27 20 15 16
155 182 182 154 168 224 207 172 154 124 110 159 160 141 139 136 127 128 136 136 136 139 138 136 136 138 140 145 148 147 144 145 148 146 144 148 153 153 152 151 152 153 153 152 150 150 151 153 155 154 153 155 155 152 150 148 144 139 136 141 151 155 152 147 139 135 134 129 115 106 106 109 114 113 101 90 73 50 36 26 27 29 28 23 16 9